DW3738 Weather Reports


Display with metric or nautical units.
time (UTC)temp
F
wind
direction
speed
MPH
gust
MPH
rain 1hr
in
rain 24hr
in
rain mn
in
humidity
%
barometer
mb
20260505013031 66 218 0.0 0.0 0.00 0.00 0.00 45 1014.5
20260505011534 68 218 0.0 0.0 0.00 0.00 0.00 43 1014.4
20260505010030 70 218 0.0 0.0 0.00 0.00 0.00 38 1014.2
20260505004543 71 152 0.0 0.0 0.00 0.00 0.00 36 1014.0
20260505003031 72 165 1.0 0.0 0.00 0.00 0.00 36 1014.0
20260505001528 73 165 1.0 0.0 0.00 0.00 0.00 35 1013.9
20260505000041 74 173 3.0 0.0 0.00 0.00 0.00 35 1013.9
20260504234528 75 196 5.0 0.0 0.00 0.00 0.00 34 1013.6
20260504233027 76 200 4.0 0.0 0.00 0.00 0.00 33 1013.4
20260504231530 77 197 3.0 0.0 0.00 0.00 0.00 29 1013.2
20260504230026 77 165 5.0 0.0 0.00 0.00 0.00 30 1013.1
20260504224525 78 171 5.0 0.0 0.00 0.00 0.00 30 1013.3
20260504223025 78 194 4.0 0.0 0.00 0.00 0.00 29 1013.3
20260504221523 79 188 3.0 0.0 0.00 0.00 0.00 28 1013.3
20260504220023 79 199 4.0 0.0 0.00 0.00 0.00 27 1013.4
20260504214524 79 169 4.0 0.0 0.00 0.00 0.00 27 1013.3
20260504213022 79 159 4.0 0.0 0.00 0.00 0.00 25 1013.3
20260504211520 79 211 5.0 0.0 0.00 0.00 0.00 26 1013.4
20260504210023 79 138 4.0 0.0 0.00 0.00 0.00 28 1013.5
20260504204517 79 201 4.0 0.0 0.00 0.00 0.00 27 1013.6
20260504203016 79 193 4.0 0.0 0.00 0.00 0.00 27 1013.9
20260504201515 79 221 4.0 0.0 0.00 0.00 0.00 27 1014.1
20260504200014 79 265 3.0 0.0 0.00 0.00 0.00 27 1014.1
20260504194511 78 216 4.0 0.0 0.00 0.00 0.00 29 1014.2
20260504193012 79 128 2.0 0.0 0.00 0.00 0.00 27 1014.4
20260504191508 78 112 3.0 0.0 0.00 0.00 0.00 26 1014.6
20260504190006 77 223 4.0 0.0 0.00 0.00 0.00 26 1014.9
20260504184503 76 205 5.0 0.0 0.00 0.00 0.00 31 1015.0
20260504183001 77 207 3.0 0.0 0.00 0.00 0.00 29 1015.2
20260504181602 77 143 3.0 0.0 0.00 0.00 0.00 30 1015.4
20260504180114 77 355 2.0 0.0 0.00 0.00 0.00 29 1015.6
20260504174555 76 229 2.0 0.0 0.00 0.00 0.00 32 1015.7
20260504173052 75 258 2.0 0.0 0.00 0.00 0.00 32 1015.8
20260504171550 74 214 3.0 0.0 0.00 0.00 0.00 33 1015.8
20260504081512 44 153 0.0 0.0 0.00 0.00 0.00 95 1016.8
20260504044552 47 153 0.0 0.0 0.00 0.00 0.00 89 1017.4
20260504043051 47 153 0.0 0.0 0.00 0.00 0.00 88 1017.5
20260504041545 48 153 0.0 0.0 0.00 0.00 0.00 87 1017.6
20260504040048 49 153 0.0 0.0 0.00 0.00 0.00 85 1017.6
20260504034543 49 153 0.0 0.0 0.00 0.00 0.00 84 1017.6
20260504033041 50 153 0.0 0.0 0.00 0.00 0.00 82 1017.7
20260504031544 50 153 0.0 0.0 0.00 0.00 0.00 79 1017.7
20260504030039 51 153 0.0 0.0 0.00 0.00 0.00 78 1017.6
20260504024545 51 153 0.0 0.0 0.00 0.00 0.00 75 1017.5
20260504023038 52 153 0.0 0.0 0.00 0.00 0.00 74 1017.3
20260504021538 53 153 0.0 0.0 0.00 0.00 0.00 70 1017.2
20260504020042 54 153 0.0 0.0 0.00 0.00 0.00 68 1017.0
20260504014537 54 153 0.0 0.0 0.00 0.00 0.00 67 1016.9